| time (UTC) | temp C | wind direction | speed KPH | gust KPH | rain 1hr cm | rain 24hr cm | rain mn cm | humidity % | barometer mb |
| 20260509185923 | 15 | 131 | 3.2 | 9.7 | 0.00 | 0.00 | 0.00 | 69 | 1008.9 |
| 20260509185420 | 15 | 127 | 3.2 | 9.7 | 0.00 | 0.00 | 0.00 | 70 | 1008.9 |
| 20260509184916 | 15 | 107 | 3.2 | 11.3 | 0.00 | 0.00 | 0.00 | 70 | 1008.9 |
| 20260509184414 | 15 | 137 | 4.8 | 9.7 | 0.00 | 0.00 | 0.00 | 70 | 1008.8 |
| 20260509183905 | 15 | 75 | 1.6 | 11.3 | 0.00 | 0.00 | 0.00 | 71 | 1008.9 |
| 20260509183400 | 15 | 164 | 6.4 | 6.4 | 0.00 | 0.00 | 0.00 | 71 | 1009.1 |
| 20260509182856 | 15 | 116 | 3.2 | 14.5 | 0.00 | 0.00 | 0.00 | 72 | 1009.1 |
| 20260509182353 | 15 | 144 | 4.8 | 12.9 | 0.00 | 0.00 | 0.00 | 72 | 1009.1 |
| 20260509181851 | 15 | 156 | 1.6 | 6.4 | 0.00 | 0.00 | 0.00 | 73 | 1009.2 |
| 20260509181348 | 14 | 80 | 1.6 | 4.8 | 0.00 | 0.00 | 0.00 | 73 | 1009.0 |
| 20260509180845 | 14 | 236 | 1.6 | 4.8 | 0.00 | 0.00 | 0.00 | 73 | 1009.1 |
| 20260509180341 | 13 | 95 | 3.2 | 6.4 | 0.00 | 0.00 | 0.00 | 76 | 1009.1 |
| 20260509175838 | 13 | 121 | 1.6 | 3.2 | 0.00 | 0.00 | 0.00 | 82 | 1009.3 |
| 20260509175334 | 12 | 306 | 0.0 | 1.6 | 0.00 | 0.00 | 0.00 | 83 | 1009.2 |
| 20260509174830 | 12 | 112 | 0.0 | 1.6 | 0.00 | 0.00 | 0.00 | 85 | 1009.2 |
| 20260509174326 | 11 | 306 | 1.6 | 1.6 | 0.00 | 0.00 | 0.00 | 85 | 1009.2 |
| 20260509173822 | 11 | 12 | 0.0 | 1.6 | 0.00 | 0.00 | 0.00 | 85 | 1009.2 |
| 20260509173318 | 11 | 217 | 0.0 | 1.6 | 0.00 | 0.00 | 0.00 | 86 | 1009.2 |
| 20260509172814 | 11 | 345 | 1.6 | 3.2 | 0.00 | 0.00 | 0.00 | 86 | 1009.3 |
| 20260509172311 | 11 | 359 | 0.0 | 0.0 | 0.00 | 0.00 | 0.00 | 87 | 1009.3 |
| 20260509171806 | 11 | 341 | 0.0 | 0.0 | 0.00 | 0.00 | 0.00 | 87 | 1009.4 |
| 20260509171302 | 11 | 17 | 0.0 | 1.6 | 0.00 | 0.00 | 0.00 | 87 | 1009.2 |
| 20260509170758 | 11 | 329 | 0.0 | 0.0 | 0.00 | 0.00 | 0.00 | 87 | 1009.5 |
| 20260509170255 | 11 | 341 | 0.0 | 1.6 | 0.00 | 0.00 | 0.00 | 87 | 1009.6 |
| 20260509165754 | 11 | 329 | 0.0 | 0.0 | 0.00 | 0.00 | 0.00 | 87 | 1009.7 |
| 20260509165244 | 11 | 357 | 0.0 | 1.6 | 0.00 | 0.00 | 0.00 | 87 | 1009.6 |
| 20260509164740 | 11 | 29 | 3.2 | 3.2 | 0.00 | 0.00 | 0.00 | 87 | 1009.5 |
| 20260509164236 | 11 | 26 | 0.0 | 1.6 | 0.00 | 0.00 | 0.00 | 87 | 1009.7 |
| 20260509163733 | 11 | 194 | 0.0 | 0.0 | 0.00 | 0.00 | 0.00 | 88 | 1009.7 |
| 20260509163229 | 11 | 10 | 0.0 | 0.0 | 0.00 | 0.00 | 0.00 | 87 | 1009.8 |
| 20260509162728 | 11 | 295 | 0.0 | 3.2 | 0.00 | 0.00 | 0.00 | 87 | 1009.8 |
| 20260509162222 | 11 | 325 | 1.6 | 3.2 | 0.00 | 0.00 | 0.00 | 87 | 1009.9 |
| 20260509161718 | 11 | 335 | 0.0 | 1.6 | 0.00 | 0.00 | 0.00 | 87 | 1010.0 |
| 20260509161214 | 11 | 359 | 0.0 | 0.0 | 0.00 | 0.00 | 0.00 | 86 | 1010.1 |
| 20260509160709 | 11 | 350 | 0.0 | 3.2 | 0.00 | 0.00 | 0.00 | 86 | 1010.2 |
| 20260509160206 | 11 | 262 | 0.0 | 0.0 | 0.00 | 0.00 | 0.00 | 86 | 1010.2 |
| 20260509155701 | 11 | 330 | 0.0 | 0.0 | 0.00 | 0.00 | 0.00 | 85 | 1010.4 |
| 20260509155158 | 11 | 18 | 0.0 | 0.0 | 0.00 | 0.00 | 0.00 | 84 | 1010.2 |
| 20260509154654 | 12 | 107 | 0.0 | 0.0 | 0.00 | 0.00 | 0.00 | 83 | 1010.3 |
| 20260509154151 | 12 | 124 | 0.0 | 0.0 | 0.00 | 0.00 | 0.00 | 83 | 1010.2 |
| 20260509153648 | 11 | 72 | 0.0 | 0.0 | 0.00 | 0.00 | 0.00 | 83 | 1010.2 |
| 20260509153145 | 11 | 82 | 0.0 | 0.0 | 0.00 | 0.00 | 0.00 | 83 | 1010.4 |
| 20260509152640 | 11 | 82 | 0.0 | 0.0 | 0.00 | 0.00 | 0.00 | 84 | 1010.3 |
| 20260509152138 | 11 | 90 | 0.0 | 0.0 | 0.00 | 0.00 | 0.00 | 83 | 1010.5 |
| 20260509151634 | 11 | 224 | 0.0 | 0.0 | 0.00 | 0.00 | 0.00 | 83 | 1010.5 |
| 20260509151132 | 11 | 346 | 0.0 | 0.0 | 0.00 | 0.00 | 0.00 | 83 | 1010.6 |
| 20260509150630 | 11 | 354 | 0.0 | 0.0 | 0.00 | 0.00 | 0.00 | 83 | 1010.7 |
| 20260509150128 | 11 | 346 | 0.0 | 0.0 | 0.00 | 0.00 | 0.00 | 83 | 1010.6 |
| 20260509145624 | 11 | 315 | 0.0 | 0.0 | 0.00 | 0.00 | 0.00 | 83 | 1010.6 |
| 20260509145119 | 11 | 303 | 0.0 | 0.0 | 0.00 | 0.00 | 0.00 | 83 | 1010.6 |
| 20260509144616 | 11 | 311 | 0.0 | 0.0 | 0.00 | 0.00 | 0.00 | 83 | 1010.7 |
| 20260509144113 | 11 | 295 | 0.0 | 0.0 | 0.00 | 0.00 | 0.00 | 83 | 1010.6 |
| 20260509143610 | 10 | 355 | 0.0 | 0.0 | 0.00 | 0.00 | 0.00 | 83 | 1010.5 |
| 20260509143108 | 10 | 338 | 0.0 | 1.6 | 0.00 | 0.00 | 0.00 | 82 | 1010.7 |
| 20260509142602 | 11 | 352 | 0.0 | 0.0 | 0.00 | 0.00 | 0.00 | 82 | 1010.8 |
| 20260509142059 | 10 | 266 | 0.0 | 0.0 | 0.00 | 0.00 | 0.00 | 83 | 1010.7 |
| 20260509141555 | 10 | 12 | 0.0 | 1.6 | 0.00 | 0.00 | 0.00 | 83 | 1010.7 |
| 20260509141052 | 10 | 19 | 0.0 | 1.6 | 0.00 | 0.00 | 0.00 | 84 | 1010.8 |
| 20260509140549 | 10 | 58 | 0.0 | 1.6 | 0.00 | 0.00 | 0.00 | 85 | 1010.9 |
| 20260509140047 | 9 | 10 | 0.0 | 0.0 | 0.00 | 0.00 | 0.00 | 85 | 1011.0 |
| 20260509135543 | 9 | 19 | 0.0 | 0.0 | 0.00 | 0.00 | 0.00 | 84 | 1011.0 |
| 20260509135041 | 9 | 32 | 0.0 | 0.0 | 0.00 | 0.00 | 0.00 | 85 | 1011.1 |
| 20260509134538 | 8 | 75 | 0.0 | 0.0 | 0.00 | 0.00 | 0.00 | 85 | 1011.2 |
| 20260509134036 | 8 | 15 | 0.0 | 0.0 | 0.00 | 0.00 | 0.00 | 85 | 1011.1 |
| 20260509133532 | 8 | 15 | 0.0 | 0.0 | 0.00 | 0.00 | 0.00 | 84 | 1011.2 |
| 20260509133030 | 8 | 30 | 0.0 | 0.0 | 0.00 | 0.00 | 0.00 | 84 | 1011.2 |
| 20260509132528 | 8 | 22 | 0.0 | 0.0 | 0.00 | 0.00 | 0.00 | 84 | 1011.1 |
| 20260509132026 | 7 | 330 | 0.0 | 0.0 | 0.00 | 0.00 | 0.00 | 84 | 1011.2 |
| 20260509131521 | 7 | 15 | 0.0 | 1.6 | 0.00 | 0.00 | 0.00 | 85 | 1011.3 |
| 20260509131018 | 7 | 341 | 0.0 | 0.0 | 0.00 | 0.00 | 0.00 | 86 | 1011.3 |
| 20260509130514 | 7 | 343 | 0.0 | 0.0 | 0.00 | 0.00 | 0.00 | 86 | 1011.0 |
| 20260509130011 | 7 | 348 | 0.0 | 0.0 | 0.00 | 0.00 | 0.00 | 86 | 1011.0 |
| 20260509125507 | 7 | 350 | 0.0 | 0.0 | 0.00 | 0.00 | 0.00 | 87 | 1011.0 |
| 20260509125003 | 7 | 352 | 0.0 | 0.0 | 0.00 | 0.00 | 0.00 | 88 | 1011.2 |
| 20260509124455 | 6 | 27 | 0.0 | 0.0 | 0.00 | 0.00 | 0.00 | 88 | 1011.1 |
| 20260509123952 | 6 | 359 | 0.0 | 0.0 | 0.00 | 0.00 | 0.00 | 89 | 1011.0 |
| 20260509123450 | 6 | 26 | 0.0 | 0.0 | 0.00 | 0.00 | 0.00 | 89 | 1011.0 |
| 20260509122945 | 6 | 25 | 0.0 | 0.0 | 0.00 | 0.00 | 0.00 | 89 | 1011.3 |
| 20260509122442 | 6 | 20 | 0.0 | 0.0 | 0.00 | 0.00 | 0.00 | 89 | 1011.2 |
| 20260509121940 | 6 | 25 | 0.0 | 0.0 | 0.00 | 0.00 | 0.00 | 89 | 1011.1 |
| 20260509121436 | 6 | 28 | 0.0 | 0.0 | 0.00 | 0.00 | 0.00 | 90 | 1011.2 |
| 20260509120934 | 6 | 30 | 0.0 | 0.0 | 0.00 | 0.00 | 0.00 | 90 | 1011.4 |
| 20260509120432 | 6 | 31 | 0.0 | 0.0 | 0.00 | 0.00 | 0.00 | 89 | 1011.3 |
| 20260509115930 | 5 | 55 | 0.0 | 0.0 | 0.00 | 0.00 | 0.00 | 89 | 1011.2 |
| 20260509115427 | 5 | 79 | 0.0 | 0.0 | 0.00 | 0.00 | 0.00 | 89 | 1011.4 |
| 20260509114924 | 5 | 126 | 0.0 | 0.0 | 0.00 | 0.00 | 0.00 | 89 | 1011.6 |
| 20260509114422 | 5 | 134 | 0.0 | 0.0 | 0.00 | 0.00 | 0.00 | 89 | 1011.6 |
| 20260509113922 | 5 | 95 | 0.0 | 0.0 | 0.00 | 0.00 | 0.00 | 90 | 1011.6 |
| 20260509113418 | 5 | 187 | 0.0 | 0.0 | 0.00 | 0.00 | 0.00 | 90 | 1011.6 |
| 20260509112915 | 5 | 53 | 0.0 | 0.0 | 0.00 | 0.00 | 0.00 | 90 | 1011.6 |
| 20260509112412 | 5 | 74 | 0.0 | 0.0 | 0.00 | 0.00 | 0.00 | 92 | 1011.6 |
| 20260509111904 | 5 | 40 | 0.0 | 0.0 | 0.00 | 0.00 | 0.00 | 92 | 1011.5 |
| 20260509111400 | 5 | 146 | 0.0 | 0.0 | 0.00 | 0.00 | 0.00 | 92 | 1011.9 |
| 20260509110858 | 5 | 17 | 0.0 | 0.0 | 0.00 | 0.00 | 0.00 | 92 | 1011.6 |
| 20260509110354 | 5 | 26 | 0.0 | 0.0 | 0.00 | 0.00 | 0.00 | 93 | 1011.6 |
| 20260509105853 | 4 | 25 | 0.0 | 0.0 | 0.00 | 0.00 | 0.00 | 93 | 1011.6 |
| 20260509105350 | 4 | 24 | 0.0 | 0.0 | 0.00 | 0.00 | 0.00 | 93 | 1011.5 |
| 20260509104847 | 4 | 8 | 0.0 | 0.0 | 0.00 | 0.00 | 0.00 | 94 | 1011.7 |
| 20260509104343 | 4 | 76 | 0.0 | 0.0 | 0.00 | 0.00 | 0.00 | 94 | 1011.7 |
| 20260509103841 | 3 | 93 | 0.0 | 0.0 | 0.00 | 0.00 | 0.00 | 94 | 1011.7 |
| 20260509103338 | 3 | 77 | 0.0 | 0.0 | 0.00 | 0.00 | 0.00 | 94 | 1011.5 |
| 20260509102837 | 3 | 78 | 0.0 | 0.0 | 0.00 | 0.00 | 0.00 | 94 | 1011.6 |
| 20260509102334 | 3 | 78 | 0.0 | 0.0 | 0.00 | 0.00 | 0.00 | 94 | 1011.6 |
| 20260509101829 | 3 | 78 | 0.0 | 0.0 | 0.00 | 0.00 | 0.00 | 94 | 1011.6 |
| 20260509101325 | 3 | 113 | 0.0 | 0.0 | 0.00 | 0.00 | 0.00 | 94 | 1011.5 |
| 20260509100824 | 3 | 119 | 0.0 | 0.0 | 0.00 | 0.00 | 0.00 | 94 | 1011.5 |
| 20260509100321 | 3 | 117 | 0.0 | 0.0 | 0.00 | 0.00 | 0.00 | 94 | 1011.4 |
| 20260509095817 | 3 | 85 | 0.0 | 0.0 | 0.00 | 0.00 | 0.00 | 94 | 1011.3 |
| 20260509095314 | 3 | 113 | 0.0 | 0.0 | 0.00 | 0.00 | 0.00 | 94 | 1011.2 |
| 20260509094812 | 3 | 112 | 0.0 | 0.0 | 0.00 | 0.00 | 0.00 | 94 | 1011.2 |
| 20260509094308 | 3 | 112 | 0.0 | 0.0 | 0.00 | 0.00 | 0.00 | 94 | 1011.2 |
| 20260509093806 | 3 | 106 | 0.0 | 0.0 | 0.00 | 0.00 | 0.00 | 94 | 1011.2 |
| 20260509093303 | 3 | 106 | 0.0 | 0.0 | 0.00 | 0.00 | 0.00 | 94 | 1011.3 |
| 20260509092801 | 3 | 108 | 0.0 | 0.0 | 0.00 | 0.00 | 0.00 | 94 | 1011.3 |
| 20260509092259 | 3 | 108 | 0.0 | 0.0 | 0.00 | 0.00 | 0.00 | 94 | 1011.4 |
| 20260509091757 | 3 | 108 | 0.0 | 0.0 | 0.00 | 0.00 | 0.00 | 94 | 1011.4 |
| 20260509091253 | 3 | 106 | 0.0 | 0.0 | 0.00 | 0.00 | 0.00 | 93 | 1011.2 |
| 20260509090751 | 3 | 106 | 0.0 | 0.0 | 0.00 | 0.00 | 0.00 | 93 | 1011.5 |
| 20260509090247 | 3 | 124 | 0.0 | 0.0 | 0.00 | 0.00 | 0.00 | 93 | 1011.6 |
| 20260509085745 | 3 | 132 | 0.0 | 0.0 | 0.00 | 0.00 | 0.00 | 93 | 1011.7 |
| 20260509085242 | 3 | 141 | 0.0 | 0.0 | 0.00 | 0.00 | 0.00 | 93 | 1011.8 |
| 20260509084739 | 3 | 141 | 0.0 | 0.0 | 0.00 | 0.00 | 0.00 | 94 | 1011.9 |
| 20260509084235 | 3 | 142 | 0.0 | 0.0 | 0.00 | 0.00 | 0.00 | 94 | 1011.9 |
| 20260509083733 | 3 | 142 | 0.0 | 0.0 | 0.00 | 0.00 | 0.00 | 94 | 1011.9 |
| 20260509083230 | 3 | 142 | 0.0 | 0.0 | 0.00 | 0.00 | 0.00 | 93 | 1011.8 |
| 20260509082726 | 3 | 142 | 0.0 | 0.0 | 0.00 | 0.00 | 0.00 | 93 | 1011.9 |
| 20260509082223 | 3 | 142 | 0.0 | 0.0 | 0.00 | 0.00 | 0.00 | 93 | 1012.0 |
| 20260509081720 | 3 | 142 | 0.0 | 0.0 | 0.00 | 0.00 | 0.00 | 93 | 1012.0 |
| 20260509081217 | 3 | 142 | 0.0 | 0.0 | 0.00 | 0.00 | 0.00 | 92 | 1012.0 |
| 20260509080715 | 3 | 142 | 0.0 | 0.0 | 0.00 | 0.00 | 0.00 | 92 | 1012.0 |
| 20260509080213 | 3 | 142 | 0.0 | 0.0 | 0.00 | 0.00 | 0.00 | 92 | 1012.0 |
| 20260509075711 | 3 | 145 | 0.0 | 0.0 | 0.00 | 0.00 | 0.00 | 92 | 1012.0 |
| 20260509075208 | 3 | 150 | 0.0 | 0.0 | 0.00 | 0.00 | 0.00 | 92 | 1012.3 |
| 20260509074705 | 3 | 153 | 0.0 | 0.0 | 0.00 | 0.00 | 0.00 | 92 | 1012.3 |
| 20260509074202 | 3 | 153 | 0.0 | 0.0 | 0.00 | 0.00 | 0.00 | 92 | 1012.3 |
| 20260509073653 | 3 | 153 | 0.0 | 0.0 | 0.00 | 0.00 | 0.00 | 92 | 1012.3 |
| 20260509073149 | 3 | 159 | 0.0 | 0.0 | 0.00 | 0.00 | 0.00 | 92 | 1012.4 |
| 20260509072647 | 3 | 159 | 0.0 | 0.0 | 0.00 | 0.00 | 0.00 | 91 | 1012.3 |
| 20260509072143 | 3 | 159 | 0.0 | 0.0 | 0.00 | 0.00 | 0.00 | 91 | 1012.1 |
| 20260509071640 | 3 | 159 | 0.0 | 0.0 | 0.00 | 0.00 | 0.00 | 91 | 1012.2 |
| 20260509071137 | 3 | 159 | 0.0 | 0.0 | 0.00 | 0.00 | 0.00 | 91 | 1012.1 |
| 20260509070634 | 3 | 159 | 0.0 | 0.0 | 0.00 | 0.00 | 0.00 | 91 | 1012.2 |
| 20260509070131 | 3 | 159 | 0.0 | 0.0 | 0.00 | 0.00 | 0.00 | 91 | 1012.2 |
| 20260509065626 | 3 | 159 | 0.0 | 0.0 | 0.00 | 0.00 | 0.00 | 91 | 1012.2 |
| 20260509065123 | 3 | 165 | 0.0 | 0.0 | 0.00 | 0.00 | 0.00 | 90 | 1012.2 |
| 20260509064619 | 3 | 158 | 0.0 | 0.0 | 0.00 | 0.00 | 0.00 | 90 | 1012.2 |
| 20260509064118 | 3 | 158 | 0.0 | 0.0 | 0.00 | 0.00 | 0.00 | 89 | 1012.3 |
| 20260509063614 | 3 | 160 | 0.0 | 0.0 | 0.00 | 0.00 | 0.00 | 89 | 1012.4 |
| 20260509063110 | 3 | 160 | 0.0 | 0.0 | 0.00 | 0.00 | 0.00 | 90 | 1012.4 |
| 20260509062608 | 3 | 139 | 0.0 | 0.0 | 0.00 | 0.00 | 0.00 | 89 | 1012.6 |
| 20260509062105 | 3 | 140 | 0.0 | 0.0 | 0.00 | 0.00 | 0.00 | 90 | 1012.4 |
| 20260509061602 | 3 | 136 | 0.0 | 0.0 | 0.00 | 0.00 | 0.00 | 90 | 1012.5 |
| 20260509061059 | 3 | 136 | 0.0 | 0.0 | 0.00 | 0.00 | 0.00 | 90 | 1012.7 |
| 20260509060557 | 3 | 136 | 0.0 | 0.0 | 0.00 | 0.00 | 0.00 | 89 | 1012.6 |
| 20260509060052 | 3 | 136 | 0.0 | 0.0 | 0.00 | 0.00 | 0.00 | 89 | 1012.8 |
| 20260509055547 | 3 | 136 | 0.0 | 0.0 | 0.00 | 0.00 | 0.00 | 89 | 1013.0 |
| 20260509055043 | 3 | 139 | 0.0 | 0.0 | 0.00 | 0.00 | 0.00 | 90 | 1013.0 |
| 20260509054540 | 3 | 139 | 0.0 | 0.0 | 0.00 | 0.00 | 0.00 | 89 | 1013.0 |
| 20260509054033 | 3 | 139 | 0.0 | 0.0 | 0.00 | 0.00 | 0.00 | 89 | 1013.0 |
| 20260509053532 | 3 | 142 | 0.0 | 0.0 | 0.00 | 0.00 | 0.00 | 89 | 1013.1 |
| 20260509053028 | 3 | 137 | 0.0 | 0.0 | 0.00 | 0.00 | 0.00 | 89 | 1013.1 |
| 20260509052526 | 3 | 137 | 0.0 | 0.0 | 0.00 | 0.00 | 0.00 | 90 | 1013.1 |
| 20260509052024 | 3 | 138 | 0.0 | 0.0 | 0.00 | 0.00 | 0.00 | 90 | 1013.1 |
| 20260509051521 | 3 | 138 | 0.0 | 0.0 | 0.00 | 0.00 | 0.00 | 90 | 1013.2 |
| 20260509051012 | 3 | 138 | 0.0 | 0.0 | 0.00 | 0.00 | 0.00 | 90 | 1013.3 |
| 20260509050509 | 3 | 138 | 0.0 | 0.0 | 0.00 | 0.00 | 0.00 | 90 | 1013.3 |
| 20260509050006 | 3 | 138 | 0.0 | 0.0 | 0.00 | 0.00 | 0.00 | 90 | 1013.3 |
| 20260509045503 | 3 | 146 | 0.0 | 0.0 | 0.00 | 0.00 | 0.00 | 90 | 1013.5 |
| 20260509045000 | 3 | 141 | 0.0 | 0.0 | 0.00 | 0.00 | 0.00 | 90 | 1013.5 |
| 20260509044458 | 3 | 142 | 0.0 | 0.0 | 0.00 | 0.00 | 0.00 | 90 | 1013.4 |
| 20260509043954 | 3 | 139 | 0.0 | 0.0 | 0.00 | 0.00 | 0.00 | 90 | 1013.5 |
| 20260509043450 | 3 | 143 | 0.0 | 0.0 | 0.00 | 0.00 | 0.00 | 91 | 1013.5 |
| 20260509042946 | 3 | 142 | 0.0 | 0.0 | 0.00 | 0.00 | 0.00 | 90 | 1013.5 |
| 20260509042443 | 3 | 140 | 0.0 | 0.0 | 0.00 | 0.00 | 0.00 | 90 | 1013.5 |
| 20260509041939 | 3 | 131 | 0.0 | 0.0 | 0.00 | 0.00 | 0.00 | 90 | 1013.6 |
| 20260509041436 | 3 | 133 | 0.0 | 0.0 | 0.00 | 0.00 | 0.00 | 90 | 1013.5 |
| 20260509040934 | 3 | 134 | 0.0 | 0.0 | 0.00 | 0.00 | 0.00 | 90 | 1013.6 |
| 20260509040432 | 3 | 122 | 0.0 | 0.0 | 0.00 | 0.00 | 0.00 | 90 | 1013.6 |
| 20260509035928 | 3 | 108 | 0.0 | 0.0 | 0.00 | 0.23 | 0.23 | 90 | 1013.4 |
| 20260509035425 | 2 | 107 | 0.0 | 0.0 | 0.00 | 0.23 | 0.23 | 90 | 1013.5 |
| 20260509034922 | 2 | 106 | 0.0 | 0.0 | 0.00 | 0.23 | 0.23 | 90 | 1013.6 |
| 20260509034420 | 2 | 106 | 0.0 | 0.0 | 0.00 | 0.23 | 0.23 | 90 | 1013.5 |
| 20260509033916 | 2 | 106 | 0.0 | 0.0 | 0.00 | 0.23 | 0.23 | 89 | 1013.6 |
| 20260509033413 | 2 | 107 | 0.0 | 0.0 | 0.00 | 0.23 | 0.23 | 89 | 1013.7 |
| 20260509032910 | 2 | 106 | 0.0 | 0.0 | 0.00 | 0.23 | 0.23 | 89 | 1013.6 |
| 20260509032408 | 3 | 105 | 0.0 | 0.0 | 0.00 | 0.23 | 0.23 | 89 | 1013.3 |
| 20260509031906 | 3 | 103 | 0.0 | 0.0 | 0.00 | 0.23 | 0.23 | 89 | 1013.5 |
| 20260509031403 | 3 | 103 | 0.0 | 0.0 | 0.00 | 0.23 | 0.23 | 89 | 1013.5 |
| 20260509030900 | 3 | 97 | 0.0 | 0.0 | 0.00 | 0.23 | 0.23 | 88 | 1013.6 |
| 20260509030358 | 3 | 93 | 0.0 | 0.0 | 0.00 | 0.23 | 0.23 | 88 | 1013.5 |
| 20260509025855 | 3 | 93 | 0.0 | 0.0 | 0.00 | 0.23 | 0.23 | 88 | 1013.6 |
| 20260509025350 | 3 | 93 | 0.0 | 0.0 | 0.00 | 0.23 | 0.23 | 88 | 1013.8 |
| 20260509024845 | 3 | 93 | 0.0 | 0.0 | 0.00 | 0.23 | 0.23 | 88 | 1013.7 |
| 20260509024341 | 3 | 93 | 0.0 | 0.0 | 0.00 | 0.23 | 0.23 | 87 | 1013.8 |
| 20260509023839 | 3 | 100 | 0.0 | 0.0 | 0.00 | 0.23 | 0.23 | 87 | 1013.7 |
| 20260509023336 | 3 | 100 | 0.0 | 0.0 | 0.00 | 0.23 | 0.23 | 86 | 1013.8 |
| 20260509022827 | 3 | 100 | 0.0 | 0.0 | 0.00 | 0.23 | 0.23 | 86 | 1013.8 |
| 20260509022324 | 4 | 96 | 0.0 | 0.0 | 0.00 | 0.23 | 0.23 | 86 | 1013.8 |
| 20260509021821 | 4 | 90 | 0.0 | 0.0 | 0.00 | 0.23 | 0.23 | 85 | 1013.7 |
| 20260509021318 | 4 | 85 | 0.0 | 0.0 | 0.00 | 0.23 | 0.23 | 85 | 1013.5 |
| 20260509020815 | 4 | 85 | 0.0 | 0.0 | 0.00 | 0.23 | 0.23 | 85 | 1013.8 |
| 20260509020313 | 4 | 85 | 0.0 | 0.0 | 0.00 | 0.23 | 0.23 | 86 | 1013.9 |
| 20260509015805 | 5 | 92 | 0.0 | 0.0 | 0.00 | 0.23 | 0.23 | 85 | 1013.8 |
| 20260509015306 | 5 | 92 | 0.0 | 0.0 | 0.00 | 0.23 | 0.23 | 84 | 1013.8 |
| 20260509014759 | 5 | 92 | 0.0 | 0.0 | 0.00 | 0.23 | 0.23 | 84 | 1013.6 |
| 20260509014257 | 5 | 91 | 0.0 | 0.0 | 0.00 | 0.23 | 0.23 | 83 | 1013.5 |
| 20260509013753 | 5 | 90 | 0.0 | 0.0 | 0.00 | 0.23 | 0.23 | 84 | 1013.7 |
| 20260509013248 | 5 | 90 | 0.0 | 0.0 | 0.00 | 0.23 | 0.23 | 83 | 1013.5 |
| 20260509012745 | 5 | 89 | 0.0 | 0.0 | 0.00 | 0.23 | 0.23 | 82 | 1013.5 |
| 20260509012242 | 5 | 90 | 0.0 | 0.0 | 0.00 | 0.23 | 0.23 | 82 | 1013.3 |
| 20260509011739 | 6 | 93 | 0.0 | 0.0 | 0.00 | 0.23 | 0.23 | 81 | 1013.4 |
| 20260509011237 | 6 | 109 | 0.0 | 0.0 | 0.00 | 0.23 | 0.23 | 80 | 1013.1 |
| 20260509010734 | 6 | 127 | 0.0 | 0.0 | 0.00 | 0.23 | 0.23 | 80 | 1013.2 |
| 20260509010231 | 6 | 128 | 0.0 | 0.0 | 0.00 | 0.23 | 0.23 | 79 | 1012.9 |
| 20260509005728 | 6 | 147 | 0.0 | 1.6 | 0.00 | 0.23 | 0.23 | 77 | 1013.0 |
| 20260509005225 | 7 | 129 | 0.0 | 0.0 | 0.00 | 0.23 | 0.23 | 76 | 1012.7 |
| 20260509004719 | 7 | 121 | 0.0 | 0.0 | 0.00 | 0.23 | 0.23 | 75 | 1012.9 |
| 20260509004217 | 7 | 115 | 0.0 | 0.0 | 0.00 | 0.23 | 0.23 | 74 | 1013.1 |
| 20260509003715 | 7 | 115 | 0.0 | 0.0 | 0.00 | 0.23 | 0.23 | 72 | 1012.7 |
| 20260509003212 | 7 | 113 | 0.0 | 0.0 | 0.00 | 0.23 | 0.23 | 71 | 1012.9 |
| 20260509002709 | 8 | 106 | 0.0 | 0.0 | 0.00 | 0.23 | 0.23 | 68 | 1012.6 |
| 20260509002207 | 8 | 99 | 0.0 | 0.0 | 0.00 | 0.23 | 0.23 | 66 | 1012.7 |
| 20260509001659 | 8 | 77 | 0.0 | 0.0 | 0.00 | 0.23 | 0.23 | 64 | 1012.5 |
| 20260509001155 | 9 | 73 | 0.0 | 0.0 | 0.00 | 0.23 | 0.23 | 61 | 1012.6 |
| 20260509000653 | 9 | 47 | 0.0 | 0.0 | 0.00 | 0.23 | 0.23 | 57 | 1012.5 |
| 20260509000150 | 10 | 46 | 0.0 | 0.0 | 0.00 | 0.23 | 0.23 | 52 | 1012.7 |
| 20260508235647 | 10 | 50 | 0.0 | 0.0 | 0.00 | 0.23 | 0.23 | 52 | 1012.4 |
| 20260508235143 | 10 | 50 | 0.0 | 0.0 | 0.00 | 0.23 | 0.23 | 49 | 1012.4 |
| 20260508234641 | 10 | 47 | 0.0 | 0.0 | 0.00 | 0.23 | 0.23 | 47 | 1012.5 |
| 20260508234137 | 10 | 48 | 0.0 | 0.0 | 0.00 | 0.23 | 0.23 | 46 | 1012.2 |
| 20260508233637 | 11 | 47 | 0.0 | 0.0 | 0.00 | 0.23 | 0.23 | 45 | 1012.4 |
| 20260508233134 | 11 | 35 | 0.0 | 0.0 | 0.00 | 0.23 | 0.23 | 46 | 1012.3 |
| 20260508232631 | 10 | 5 | 0.0 | 0.0 | 0.00 | 0.23 | 0.23 | 46 | 1012.2 |
| 20260508232127 | 11 | 7 | 0.0 | 0.0 | 0.00 | 0.23 | 0.23 | 49 | 1012.3 |
| 20260508231619 | 11 | 1 | 0.0 | 0.0 | 0.00 | 0.23 | 0.23 | 49 | 1012.2 |
| 20260508231115 | 11 | 58 | 0.0 | 0.0 | 0.00 | 0.23 | 0.23 | 46 | 1012.1 |
| 20260508230612 | 11 | 132 | 0.0 | 0.0 | 0.00 | 0.23 | 0.23 | 48 | 1012.2 |
| 20260508230108 | 11 | 36 | 0.0 | 0.0 | 0.00 | 0.23 | 0.23 | 46 | 1012.1 |
| 20260508225606 | 11 | 138 | 0.0 | 1.6 | 0.00 | 0.23 | 0.23 | 42 | 1012.2 |
| 20260508225102 | 12 | 306 | 0.0 | 1.6 | 0.00 | 0.23 | 0.23 | 44 | 1012.3 |
| 20260508224600 | 12 | 102 | 1.6 | 1.6 | 0.00 | 0.23 | 0.23 | 41 | 1012.4 |
| 20260508224057 | 12 | 322 | 0.0 | 3.2 | 0.00 | 0.23 | 0.23 | 42 | 1012.3 |
| 20260508223555 | 12 | 296 | 1.6 | 3.2 | 0.00 | 0.23 | 0.23 | 43 | 1012.3 |
| 20260508223052 | 12 | 170 | 0.0 | 3.2 | 0.00 | 0.23 | 0.23 | 41 | 1012.4 |
| 20260508222550 | 12 | 306 | 0.0 | 1.6 | 0.00 | 0.23 | 0.23 | 41 | 1012.6 |
| 20260508222047 | 12 | 338 | 1.6 | 3.2 | 0.00 | 0.23 | 0.23 | 40 | 1012.6 |
| 20260508221543 | 12 | 328 | 0.0 | 0.0 | 0.00 | 0.23 | 0.23 | 44 | 1012.5 |
| 20260508221039 | 12 | 25 | 0.0 | 1.6 | 0.00 | 0.23 | 0.23 | 46 | 1012.6 |
| 20260508220536 | 12 | 115 | 1.6 | 6.4 | 0.00 | 0.23 | 0.23 | 43 | 1012.6 |
| 20260508220032 | 12 | 297 | 3.2 | 4.8 | 0.00 | 0.23 | 0.23 | 45 | 1012.7 |
| 20260508215529 | 12 | 310 | 0.0 | 1.6 | 0.00 | 0.23 | 0.23 | 42 | 1012.6 |
| 20260508215026 | 12 | 289 | 0.0 | 1.6 | 0.00 | 0.23 | 0.23 | 41 | 1012.6 |
| 20260508214523 | 12 | 302 | 1.6 | 3.2 | 0.00 | 0.23 | 0.23 | 39 | 1012.5 |
| 20260508214019 | 13 | 309 | 8.0 | 9.7 | 0.00 | 0.23 | 0.23 | 39 | 1012.6 |
| 20260508213517 | 13 | 217 | 3.2 | 6.4 | 0.00 | 0.23 | 0.23 | 38 | 1012.8 |
| 20260508213012 | 12 | 236 | 0.0 | 3.2 | 0.00 | 0.23 | 0.23 | 44 | 1012.5 |
| 20260508212504 | 12 | 297 | 3.2 | 3.2 | 0.00 | 0.23 | 0.23 | 43 | 1012.7 |
| 20260508212000 | 13 | 289 | 3.2 | 6.4 | 0.00 | 0.23 | 0.23 | 42 | 1012.7 |
| 20260508211455 | 12 | 107 | 3.2 | 3.2 | 0.00 | 0.23 | 0.23 | 45 | 1012.4 |
| 20260508210952 | 13 | 315 | 3.2 | 4.8 | 0.00 | 0.23 | 0.23 | 46 | 1012.6 |
| 20260508210449 | 13 | 167 | 3.2 | 3.2 | 0.00 | 0.23 | 0.23 | 46 | 1012.8 |
| 20260508205945 | 12 | 311 | 1.6 | 1.6 | 0.00 | 0.23 | 0.23 | 52 | 1012.7 |
| 20260508205443 | 11 | 158 | 0.0 | 0.0 | 0.00 | 0.23 | 0.23 | 50 | 1012.9 |
| 20260508204939 | 11 | 318 | 0.0 | 1.6 | 0.00 | 0.23 | 0.23 | 50 | 1012.8 |
| 20260508204437 | 11 | 301 | 0.0 | 1.6 | 0.00 | 0.23 | 0.23 | 49 | 1013.0 |
| 20260508203931 | 11 | 165 | 0.0 | 1.6 | 0.00 | 0.23 | 0.23 | 46 | 1012.8 |
| 20260508203428 | 12 | 305 | 3.2 | 3.2 | 0.00 | 0.23 | 0.23 | 50 | 1012.8 |
| 20260508202924 | 11 | 306 | 3.2 | 4.8 | 0.00 | 0.23 | 0.23 | 48 | 1013.0 |
| 20260508202422 | 12 | 306 | 0.0 | 3.2 | 0.00 | 0.23 | 0.23 | 45 | 1013.0 |
| 20260508201918 | 12 | 188 | 1.6 | 3.2 | 0.00 | 0.23 | 0.23 | 46 | 1012.9 |
| 20260508201415 | 11 | 108 | 1.6 | 3.2 | 0.00 | 0.23 | 0.23 | 54 | 1013.1 |
| 20260508200912 | 11 | 116 | 1.6 | 1.6 | 0.00 | 0.23 | 0.23 | 54 | 1013.3 |
| 20260508200409 | 11 | 305 | 0.0 | 3.2 | 0.00 | 0.23 | 0.23 | 53 | 1013.0 |
| 20260508195904 | 11 | 304 | 3.2 | 3.2 | 0.00 | 0.23 | 0.23 | 52 | 1013.2 |
| 20260508195401 | 11 | 243 | 1.6 | 3.2 | 0.00 | 0.23 | 0.23 | 53 | 1013.3 |
| 20260508194857 | 12 | 340 | 3.2 | 6.4 | 0.00 | 0.23 | 0.23 | 47 | 1013.3 |
| 20260508194354 | 13 | 316 | 3.2 | 6.4 | 0.00 | 0.23 | 0.23 | 48 | 1013.4 |
| 20260508193851 | 11 | 311 | 1.6 | 4.8 | 0.00 | 0.23 | 0.23 | 54 | 1013.3 |
| 20260508193348 | 11 | 163 | 4.8 | 4.8 | 0.00 | 0.23 | 0.23 | 51 | 1013.2 |
| 20260508192844 | 11 | 292 | 1.6 | 3.2 | 0.00 | 0.23 | 0.23 | 55 | 1013.3 |
| 20260508192342 | 11 | 321 | 1.6 | 4.8 | 0.00 | 0.23 | 0.23 | 56 | 1013.4 |
| 20260508191838 | 12 | 320 | 1.6 | 4.8 | 0.00 | 0.23 | 0.23 | 52 | 1013.4 |
| 20260508191336 | 12 | 303 | 0.0 | 3.2 | 0.00 | 0.23 | 0.23 | 54 | 1013.6 |
| 20260508190833 | 12 | 302 | 3.2 | 3.2 | 0.00 | 0.23 | 0.23 | 55 | 1013.8 |
| 20260508190329 | 11 | 327 | 1.6 | 3.2 | 0.00 | 0.23 | 0.23 | 60 | 1013.6 |